7 * 24
多渠道服务支持
STARLINK-5919是美国SpaceX公司星链(Starlink)星座的第二-generation卫星,于2023年3月17日发射升空,运行在近地轨道。作为全球卫星互联网组网的重要组成,它依托星链低轨星座的规模化部署,为全球偏远、基础设施匮乏地区提供高速低延迟宽带互联网服务,可支持视频通话、在线互动等应用,支撑星链网络持续扩容与服务能力升级。
美国
(US)
| 数据来源 | 国际轨道数据 |
| 星历时间: | 2026-09-12T10:32:37+0800 14小时前 查看轨道信息 |
| 半长轴: | 6950.193km |
| 偏心率: | 0.0002609 |
| 轨道倾角: | 70.000° |
| 近地点辐角 | 268.915° |
| 升交点赤经 | 194.309° |
| 平近点角 | 91.171° |
| 近地点: | 570.242km |
| 远地点: | 573.87km |
| 周期: | 96.107分钟 |
| 每日圈数: | 14.983302 |